sat.trackr.live / text

‹ back to catalog

UNKNOWN

NORAD 85421

UNKNOWN UNKNOWN UNKNOWN

§ Identity

Operator
Country
Launch date
Launch site
Launch vehicle
Mass (kg)
RCS (m²)

External: N2YO · Heavens-Above

§ Orbital elements

Epoch: 2026-06-24T07:33:48.979008Z

Period
1,397.21 min
Inclination
0.0763°
Eccentricity
0.0143872
Mean motion
1.03062781 rev/d
Perigee alt
34,426.3 km
Apogee alt
35,617.5 km
Semi-major
41,400.0 km
B*
0.0000e+0
RAAN
320.7214°
Arg perigee
137.4398°
Mean anomaly
263.4745°
Rev number
152

§ Raw data

UNKNOWN1 85421U          26175.31515022 -.00000034  00000+0  00000+0 0  99962 85421   0.0763 320.7214 0143872 137.4398 263.4745  1.03062781  1524

JSON: /api/v1/satellites/85421 · /tle

For live sub-satellite position, see the globe view (requires WebGL).

§ Visibility from observer

Set your observer location to see the next 7 days of passes ≥ 10°. The values pass through the URL so the page stays shareable.

No JS? Fill the form by hand. The geolocation button needs JavaScript.